Location: Centerville
(32.8776°N, 96.6203°W)
Time: 00:28:09
(UTC+00:00)

Helios 1A Rocket - Pass Details

Date: 17 June 2021
Orbit: 563 x 584 km, 98.3° (Epoch: 01 August)

Event Time Altitude Azimuth Distance (km) Brightness Sun altitude
Exits shadow 02:15:26 - 169° (S) 2,709 5.9 -7.7°
Reaches altitude 10° 02:17:26 10° 170° (S) 1,877 5.1 -8.1°
Maximum altitude 02:21:29 79° 257° (WSW) 587 3.0 -8.8°
Drops below altitude 10° 02:25:34 10° 345° (NNW) 1,876 6.4 -9.5°
Sets 02:27:42 0° 346° (NNW) 2,774 7.3 -9.8°
